period_start,C,m1,H,J0,J1,J2,J3,J4,J5,JA,JB,JC,JD,JJ,JK,JN,#
2013-10-12 00:00:30,0.13,1.07,0.00,25.07,26.82,29.43,6.04,29.71,1011.83,2048.98,3098.22,3027.26,3300.00,350.67,320.81,8.02,0000 0000 0000 0000 000000
2013-10-12 00:01:31,0.10,1.07,0.00,25.09,26.82,29.49,5.69,29.42,1011.78,2048.96,3098.08,3027.11,3299.97,349.13,319.38,8.03,0000 0000 0000 0000 000000
2013-10-12 00:02:31,0.06,1.07,0.00,25.09,26.82,29.46,5.94,29.63,1011.79,2048.97,3098.02,3027.04,3299.73,350.74,320.85,8.03,0000 0000 0000 0000 000000
2013-10-12 00:03:31,0.08,1.08,0.00,25.09,26.82,29.45,5.88,29.63,1011.76,2048.99,3097.83,3027.01,3299.28,350.39,320.51,8.04,0000 0000 0000 0000 000000
2013-10-12 00:04:32,0.09,1.08,0.00,25.08,26.82,29.40,6.00,29.75,1011.77,2048.98,3097.46,3027.00,3299.12,350.42,320.80,8.04,0000 0000 0000 0000 000000
2013-10-12 00:05:32,0.07,1.08,0.00,25.06,26.82,29.52,5.78,29.25,1011.75,2048.99,3097.17,3026.94,3299.04,349.55,319.77,8.05,0000 0000 0000 0000 000000
2013-10-12 00:06:32,0.08,1.08,0.00,25.10,26.82,29.48,5.70,29.63,1011.75,2048.98,3097.06,3026.63,3299.01,348.59,318.49,8.06,0000 0000 0000 0000 000000
2013-10-12 00:07:32,0.08,1.08,0.00,25.08,26.82,29.46,5.73,29.46,1011.75,2048.99,3097.00,3026.34,3298.98,350.41,320.70,8.06,0000 0000 0000 0000 000000
2013-10-12 00:08:33,0.07,1.08,0.00,25.09,26.82,29.43,6.06,29.58,1011.75,2048.97,3096.87,3026.13,3298.93,350.88,321.01,8.07,0000 0000 0000 0000 000000
2013-10-12 00:09:33,0.07,1.08,0.00,25.09,26.83,29.46,5.64,29.50,1011.75,2048.96,3096.44,3026.05,3298.62,348.83,319.25,8.07,0000 0000 0000 0000 000000
2013-10-12 00:10:33,0.11,1.08,0.00,25.12,26.83,29.47,5.82,29.50,1011.75,2048.98,3096.18,3026.01,3298.25,350.34,320.44,8.08,0000 0000 0000 0000 000000
2013-10-12 00:11:33,0.08,1.08,0.00,25.11,26.83,29.45,5.67,29.38,1011.76,2048.98,3096.07,3026.00,3298.10,349.23,319.69,8.09,0000 0000 0000 0000 000000
2013-10-12 00:12:34,0.03,1.08,0.00,25.11,26.83,29.49,6.07,29.79,1011.75,2048.98,3096.01,3026.00,3298.04,350.88,320.51,8.09,0000 0000 0000 0000 000000
2013-10-12 00:13:34,0.02,1.08,0.00,25.12,26.83,29.42,5.76,29.29,1011.74,2048.99,3095.98,3025.98,3298.01,348.70,319.26,8.10,0000 0000 0000 0000 000000
2013-10-12 00:14:34,0.03,1.08,0.00,25.14,26.84,29.49,5.88,29.50,1011.73,2048.98,3095.66,3025.75,3297.98,349.51,319.70,8.10,0000 0000 0000 0000 000000
2013-10-12 00:15:34,0.10,1.08,0.00,25.11,26.84,29.50,6.14,29.67,1011.73,2048.97,3095.30,3025.41,3297.95,350.57,320.98,8.11,0000 0000 0000 0000 000000
2013-10-12 00:16:35,0.14,1.08,0.00,25.12,26.84,29.44,6.11,29.54,1011.75,2048.97,3095.11,3025.17,3297.67,350.68,320.75,8.11,0000 0000 0000 0000 000000
2013-10-12 00:17:35,0.11,1.08,0.00,25.14,26.84,29.48,5.82,29.54,1011.74,2048.96,3095.03,3025.06,3297.31,349.34,319.50,8.12,0000 0000 0000 0000 000000
2013-10-12 00:18:36,0.08,1.08,0.00,25.15,26.85,29.42,6.09,29.79,1011.74,2048.98,3094.90,3025.02,3297.14,350.91,320.92,8.13,0000 0000 0000 0000 000000
2013-10-12 00:19:36,0.08,1.08,0.00,25.17,26.85,29.52,5.68,29.42,1011.74,2048.95,3094.42,3024.99,3297.05,349.15,319.29,8.13,0000 0000 0000 0000 000000
2013-10-12 00:20:36,0.06,1.08,0.00,25.16,26.85,29.51,5.87,29.42,1011.75,2048.94,3094.14,3024.71,3296.97,350.49,320.47,8.14,0000 0000 0000 0000 000000
2013-10-12 00:21:37,0.12,1.08,0.00,25.17,26.85,29.51,5.67,29.46,1011.74,2048.94,3093.64,3024.29,3296.61,349.02,319.19,8.14,0000 0000 0000 0000 000000
2013-10-12 00:22:37,0.21,1.09,0.00,25.16,26.85,29.51,6.08,29.63,1011.73,2048.95,3093.23,3024.11,3296.24,351.02,321.01,8.15,0000 0000 0000 0000 000000
2013-10-12 00:23:37,0.14,1.09,0.00,25.14,26.85,29.48,5.77,29.79,1011.73,2048.96,3092.95,3024.03,3296.08,350.21,320.36,8.16,0000 0000 0000 0000 000000
2013-10-12 00:24:38,0.10,1.09,0.00,25.16,26.85,29.55,5.75,29.67,1011.74,2048.95,3092.42,3024.00,3296.02,349.08,319.27,8.16,0000 0000 0000 0000 000000
2013-10-12 00:25:38,0.07,1.09,0.00,25.16,26.85,29.48,5.83,29.63,1011.74,2048.95,3092.16,3023.90,3296.00,350.52,320.56,8.17,0000 0000 0000 0000 000000
2013-10-12 00:26:38,0.08,1.09,0.00,25.16,26.85,29.46,5.80,29.42,1011.74,2048.96,3092.05,3023.62,3295.96,349.02,319.18,8.17,0000 0000 0000 0000 000000
2013-10-12 00:27:38,0.09,1.09,0.00,25.15,26.85,29.47,5.90,29.58,1011.73,2048.98,3092.01,3023.31,3295.75,349.80,319.90,8.18,0000 0000 0000 0000 000000
2013-10-12 00:28:39,0.11,1.09,0.00,25.15,26.85,29.46,5.96,29.79,1011.74,2048.98,3091.99,3023.17,3295.45,351.12,321.20,8.18,0000 0000 0000 0000 000000
2013-10-12 00:29:39,0.08,1.09,0.00,25.14,26.85,29.55,5.92,29.63,1011.73,2048.97,3091.90,3023.07,3295.21,350.17,320.46,8.19,0000 0000 0000 0000 000000
2013-10-12 00:30:39,0.05,1.09,0.00,25.14,26.85,29.49,5.81,29.71,1011.73,2048.94,3091.61,3023.02,3295.11,350.50,320.55,8.20,0000 0000 0000 0000 000000
2013-10-12 00:31:39,0.06,1.09,0.00,25.12,26.85,29.53,5.81,29.58,1011.73,2048.95,3091.27,3023.00,3295.05,350.04,319.68,8.20,0000 0000 0000 0000 000000
2013-10-12 00:32:40,0.03,1.09,0.00,25.14,26.85,29.52,5.77,29.58,1011.73,2048.95,3091.10,3023.00,3295.02,348.98,319.17,8.21,0000 0000 0000 0000 000000
2013-10-12 00:33:40,0.05,1.09,0.00,25.17,26.85,29.45,6.10,29.75,1011.73,2048.92,3091.03,3023.00,3294.99,350.57,320.59,8.21,0000 0000 0000 0000 000000
2013-10-12 00:34:40,-0.02,1.09,0.00,25.16,26.85,29.53,6.02,29.67,1011.73,2048.88,3091.01,3022.97,3294.99,349.34,319.48,8.22,0000 0000 0000 0000 000000
2013-10-12 00:35:41,-0.03,1.09,0.00,25.15,26.85,29.50,5.93,29.63,1011.73,2048.89,3091.00,3022.94,3294.94,350.88,320.89,8.23,0000 0000 0000 0000 000000
2013-10-12 00:36:41,0.05,1.09,0.00,25.13,26.85,29.53,5.89,29.63,1011.73,2048.90,3090.99,3022.92,3294.95,349.86,319.98,8.23,0000 0000 0000 0000 000000
2013-10-12 00:37:41,-0.01,1.09,0.00,25.16,26.86,29.54,5.79,29.54,1011.74,2048.89,3090.97,3022.86,3294.91,349.57,319.69,8.24,0000 0000 0000 0000 000000
2013-10-12 00:38:41,0.02,1.09,0.00,25.17,26.86,29.48,6.04,29.83,1011.74,2048.90,3090.94,3022.79,3294.74,350.70,320.72,8.24,0000 0000 0000 0000 000000
2013-10-12 00:39:41,0.06,1.09,0.00,25.19,26.86,29.52,5.84,29.58,1011.74,2048.89,3090.78,3022.49,3294.45,350.77,320.85,8.25,0000 0000 0000 0000 000000
2013-10-12 00:40:42,0.13,1.09,0.00,25.20,26.86,29.46,5.91,29.54,1011.74,2048.93,3090.62,3022.32,3294.30,350.41,320.49,8.26,0000 0000 0000 0000 000000
2013-10-12 00:41:42,0.10,1.09,0.00,25.19,26.86,29.45,6.07,29.83,1011.73,2048.93,3090.40,3022.18,3294.22,350.93,320.89,8.26,0000 0000 0000 0000 000000
2013-10-12 00:42:42,0.08,1.09,0.00,25.19,26.87,29.53,5.78,29.58,1011.73,2048.88,3090.15,3022.08,3294.10,349.36,319.47,8.27,0000 0000 0000 0000 000000
2013-10-12 00:43:42,0.05,1.09,0.00,25.19,26.87,29.56,5.64,29.58,1011.73,2048.89,3090.06,3022.04,3294.03,348.88,319.58,8.27,0000 0000 0000 0000 000000
2013-10-12 00:44:42,0.01,1.09,0.00,25.19,26.87,29.54,5.86,29.71,1011.73,2048.85,3090.02,3022.01,3294.01,350.11,319.73,8.28,0000 0000 0000 0000 000000
2013-10-12 00:45:43,-0.02,1.09,0.00,25.18,26.87,29.44,5.83,29.54,1011.73,2048.90,3090.00,3022.01,3294.00,349.80,320.10,8.28,0000 0000 0000 0000 000000
2013-10-12 00:46:43,0.06,1.09,0.00,25.19,26.87,29.53,5.78,29.29,1011.73,2048.90,3090.00,3022.00,3294.00,348.76,318.91,8.29,0000 0000 0000 0000 000000
2013-10-12 00:47:43,-0.01,1.09,0.00,25.17,26.87,29.55,5.76,29.54,1011.73,2048.92,3090.00,3022.00,3294.00,349.34,319.08,8.30,0000 0000 0000 0000 000000
2013-10-12 00:48:43,0.02,1.09,0.00,25.18,26.87,29.49,5.87,29.71,1011.73,2048.89,3089.99,3022.00,3294.00,349.56,319.39,8.30,0000 0000 0000 0000 000000
2013-10-12 00:49:44,-0.01,1.09,0.00,25.20,26.87,29.54,5.68,29.50,1011.73,2048.91,3089.96,3022.00,3294.00,348.72,318.87,8.31,0000 0000 0000 0000 000000
2013-10-12 00:50:44,0.01,1.09,0.00,25.19,26.87,29.55,5.79,29.58,1011.73,2048.92,3089.85,3022.00,3294.00,350.24,320.07,8.31,0000 0000 0000 0000 000000
2013-10-12 00:51:44,0.03,1.09,0.00,25.21,26.87,29.57,6.09,29.63,1011.73,2048.88,3089.63,3021.99,3293.99,350.83,320.68,8.32,0000 0000 0000 0000 000000
2013-10-12 00:52:44,0.01,1.09,0.00,25.19,26.87,29.55,6.11,29.63,1011.73,2048.89,3089.34,3021.96,3293.97,351.04,320.56,8.33,0000 0000 0000 0000 000000
2013-10-12 00:53:44,0.07,1.09,0.00,25.19,26.87,29.56,5.82,29.46,1011.74,2048.92,3089.15,3021.95,3293.95,349.44,318.98,8.33,0000 0000 0000 0000 000000
2013-10-12 00:54:44,0.03,1.09,0.00,25.18,26.87,29.50,5.77,29.54,1011.75,2048.93,3089.06,3021.95,3293.83,349.55,319.33,8.34,0000 0000 0000 0000 000000
2013-10-12 00:55:45,0.02,1.09,0.00,25.20,26.87,29.56,6.07,29.71,1011.76,2048.90,3089.02,3021.93,3293.68,351.07,321.03,8.34,0000 0000 0000 0000 000000
2013-10-12 00:56:45,0.01,1.09,0.00,25.20,26.87,29.53,5.78,29.58,1011.75,2048.76,3089.00,3021.70,3293.34,349.35,319.45,8.35,0000 0000 0000 0000 000000
2013-10-12 00:57:45,-0.02,1.09,0.00,25.21,26.87,29.50,5.95,29.50,1011.74,2048.78,3089.00,3021.54,3293.17,350.37,320.36,8.35,0000 0000 0000 0000 000000
2013-10-12 00:58:46,0.10,1.10,0.00,25.22,26.87,29.54,5.60,29.58,1011.75,2048.80,3089.00,3021.48,3293.13,349.16,319.25,8.36,0000 0000 0000 0000 000000
2013-10-12 00:59:46,0.03,1.10,0.00,25.20,26.87,29.52,6.15,29.79,1011.74,2048.86,3089.00,3021.47,3293.06,351.27,320.89,8.37,0000 0000 0000 0000 000000
2013-10-12 01:00:46,0.06,1.10,0.00,25.22,26.88,29.53,5.72,29.33,1011.75,2048.87,3089.00,3021.29,3293.03,349.12,319.21,8.37,0000 0000 0000 0000 000000
2013-10-12 01:01:46,0.06,1.10,0.00,25.23,26.88,29.50,5.92,29.63,1011.76,2048.89,3089.00,3021.16,3293.03,350.77,320.79,8.38,0000 0000 0000 0000 000000
2013-10-12 01:02:47,0.03,1.10,0.00,25.23,26.89,29.55,5.87,29.25,1011.74,2048.80,3088.98,3021.08,3293.01,349.76,319.98,8.38,0000 0000 0000 0000 000000
2013-10-12 01:03:47,-0.02,1.10,0.00,25.22,26.89,29.55,6.09,29.54,1011.75,2048.85,3088.93,3021.03,3293.00,351.02,320.95,8.39,0000 0000 0000 0000 000000
2013-10-12 01:04:47,0.04,1.10,0.00,25.25,26.89,29.53,5.68,29.38,1011.76,2048.82,3088.70,3021.01,3293.00,349.38,319.43,8.40,0000 0000 0000 0000 000000
2013-10-12 01:05:47,-0.01,1.10,0.00,25.26,26.90,29.50,6.07,29.58,1011.75,2048.69,3088.38,3021.00,3292.99,349.44,319.87,8.40,0000 0000 0000 0000 000000
2013-10-12 01:06:47,-0.02,1.10,0.00,25.26,26.90,29.58,5.83,29.75,1011.76,2048.50,3088.21,3021.00,3292.99,350.19,320.16,8.41,0000 0000 0000 0000 000000
2013-10-12 01:07:48,-0.15,1.10,0.00,25.26,26.90,29.58,5.78,29.50,1011.75,2048.42,3088.08,3021.00,3292.99,349.45,319.47,8.41,0000 0000 0000 0000 000000
2013-10-12 01:08:48,-0.04,1.10,0.00,25.25,26.90,29.57,5.94,29.50,1011.74,2048.30,3088.03,3021.00,3292.92,350.92,320.82,8.42,0000 0000 0000 0000 000000
2013-10-12 01:09:48,-0.08,1.09,0.00,25.25,26.90,29.56,5.82,29.46,1011.73,2048.31,3088.02,3020.99,3292.84,349.83,320.17,8.43,0000 0000 0000 0000 000000
2013-10-12 01:10:48,0.02,1.09,0.00,25.25,26.90,29.57,5.92,29.79,1011.73,2048.42,3088.01,3020.99,3292.88,350.02,320.00,8.43,0000 0000 0000 0000 000000
2013-10-12 01:11:49,0.14,1.10,0.00,25.26,26.90,29.56,5.64,29.17,1011.73,2048.43,3088.00,3020.99,3292.79,349.59,319.60,8.44,0000 0000 0000 0000 000000
2013-10-12 01:12:49,0.00,1.10,0.00,25.26,26.90,29.55,6.06,29.63,1011.73,2048.45,3088.00,3020.98,3292.67,350.33,320.43,8.44,0000 0000 0000 0000 000000
2013-10-12 01:13:49,0.06,1.10,0.00,25.26,26.90,29.55,5.96,29.46,1011.73,2048.57,3088.00,3020.99,3292.62,350.92,320.58,8.45,0000 0000 0000 0000 000000
2013-10-12 01:14:49,0.05,1.10,0.00,25.27,26.90,29.57,6.03,29.58,1011.73,2048.58,3087.99,3020.98,3292.38,349.53,319.53,8.45,0000 0000 0000 0000 000000
2013-10-12 01:15:50,0.08,1.10,0.00,25.26,26.90,29.60,6.07,29.42,1011.73,2048.62,3087.97,3020.92,3292.19,350.03,319.83,8.46,0000 0000 0000 0000 000000
2013-10-12 01:16:50,0.04,1.10,0.00,25.26,26.90,29.60,5.70,29.38,1011.73,2048.51,3087.95,3020.69,3292.07,349.60,319.60,8.47,0000 0000 0000 0000 000000
2013-10-12 01:17:50,0.00,1.10,0.00,25.28,26.90,29.60,6.02,29.54,1011.73,2048.38,3087.79,3020.54,3292.03,350.23,320.16,8.47,0000 0000 0000 0000 000000
2013-10-12 01:18:50,-0.03,1.10,0.00,25.27,26.90,29.57,5.81,29.38,1011.73,2048.27,3087.45,3020.28,3292.01,349.56,319.56,8.48,0000 0000 0000 0000 000000
2013-10-12 01:19:51,0.04,1.10,0.00,25.26,26.91,29.61,6.15,29.71,1011.73,2048.18,3087.29,3020.16,3292.00,350.81,320.70,8.48,0000 0000 0000 0000 000000
2013-10-12 01:20:51,-0.07,1.10,0.00,25.27,26.92,29.61,6.09,29.63,1011.73,2048.13,3087.13,3020.07,3292.00,350.79,320.64,8.49,0000 0000 0000 0000 000000
2013-10-12 01:21:51,0.04,1.10,0.00,25.26,26.92,29.65,5.91,29.54,1011.73,2048.10,3087.05,3020.04,3292.00,349.62,319.40,8.50,0000 0000 0000 0000 000000
2013-10-12 01:22:52,-0.01,1.10,0.00,25.27,26.92,29.60,5.77,29.54,1011.73,2048.09,3087.02,3020.01,3291.98,349.64,319.63,8.50,0000 0000 0000 0000 000000
2013-10-12 01:23:52,0.03,1.10,0.00,25.28,26.92,29.63,5.67,29.50,1011.73,2048.08,3087.00,3020.00,3291.96,349.01,319.04,8.51,0000 0000 0000 0000 000000
2013-10-12 01:24:52,-0.01,1.10,0.00,25.29,26.92,29.65,5.74,29.46,1011.73,2048.06,3087.00,3020.00,3291.94,348.87,319.25,8.51,0000 0000 0000 0000 000000
2013-10-12 01:25:52,-0.02,1.10,0.00,25.29,26.92,29.61,5.68,29.42,1011.73,2048.10,3087.00,3020.00,3291.88,348.84,318.82,8.52,0000 0000 0000 0000 000000
2013-10-12 01:26:52,0.06,1.10,0.00,25.29,26.92,29.58,5.85,29.29,1011.73,2048.12,3087.00,3020.00,3291.88,349.64,319.60,8.52,0000 0000 0000 0000 000000
2013-10-12 01:27:53,0.01,1.10,0.00,25.30,26.92,29.62,6.01,29.67,1011.73,2048.08,3087.00,3020.00,3291.88,350.60,320.86,8.53,0000 0000 0000 0000 000000
2013-10-12 01:28:53,-0.03,1.10,0.00,25.32,26.92,29.63,5.67,29.42,1011.73,2048.07,3086.99,3020.00,3291.77,349.43,319.46,8.54,0000 0000 0000 0000 000000
2013-10-12 01:29:53,0.00,1.10,0.00,25.30,26.92,29.59,5.83,29.25,1011.73,2048.10,3086.96,3020.00,3291.59,349.89,319.83,8.54,0000 0000 0000 0000 000000
2013-10-12 01:30:53,0.07,1.10,0.00,25.29,26.92,29.63,5.90,29.50,1011.73,2048.06,3086.93,3020.00,3291.43,349.96,320.28,8.55,0000 0000 0000 0000 000000
2013-10-12 01:31:54,-0.02,1.10,0.00,25.29,26.92,29.63,5.98,29.42,1011.73,2048.03,3086.89,3020.00,3291.28,350.78,320.75,8.55,0000 0000 0000 0000 000000
2013-10-12 01:32:54,0.00,1.10,0.00,25.30,26.93,29.64,5.98,29.29,1011.73,2048.06,3086.57,3019.99,3291.14,350.83,320.65,8.56,0000 0000 0000 0000 000000
2013-10-12 01:33:54,0.10,1.10,0.00,25.31,26.93,29.65,5.80,29.50,1011.73,2048.06,3086.36,3019.95,3291.08,349.42,319.68,8.57,0000 0000 0000 0000 000000
2013-10-12 01:34:54,0.03,1.10,0.00,25.30,26.94,29.64,5.99,29.63,1011.73,2048.04,3086.22,3019.93,3291.03,350.19,319.94,8.57,0000 0000 0000 0000 000000
2013-10-12 01:35:54,0.01,1.10,0.00,25.30,26.94,29.59,6.03,29.50,1011.73,2048.03,3086.12,3019.91,3291.01,350.26,320.16,8.58,0000 0000 0000 0000 000000
2013-10-12 01:36:55,0.01,1.10,0.00,25.31,26.95,29.65,5.74,29.42,1011.72,2048.02,3086.05,3019.79,3291.00,349.10,319.09,8.58,0000 0000 0000 0000 000000
2013-10-12 01:37:55,0.03,1.10,0.00,25.30,26.95,29.63,5.54,29.29,1011.72,2048.03,3086.02,3019.56,3291.00,348.63,318.67,8.59,0000 0000 0000 0000 000000
2013-10-12 01:38:55,0.06,1.10,0.00,25.31,26.95,29.64,5.83,29.17,1011.73,2048.03,3086.00,3019.38,3291.00,349.75,319.68,8.59,0000 0000 0000 0000 000000
2013-10-12 01:39:56,0.05,1.10,0.00,25.32,26.95,29.56,5.98,29.38,1011.73,2048.02,3086.00,3019.23,3291.00,350.78,320.62,8.60,0000 0000 0000 0000 000000
2013-10-12 01:40:56,0.02,1.10,0.00,25.30,26.95,29.53,6.13,29.71,1011.73,2048.02,3086.00,3019.12,3291.00,350.23,320.14,8.61,0000 0000 0000 0000 000000
2013-10-12 01:41:56,0.03,1.10,0.00,25.31,26.95,29.62,5.98,29.54,1011.73,2048.02,3085.99,3019.06,3290.99,350.30,320.09,8.61,0000 0000 0000 0000 000000
2013-10-12 01:42:56,0.01,1.10,0.00,25.31,26.95,29.59,5.90,29.67,1011.73,2048.03,3085.96,3019.02,3290.97,350.11,320.39,8.62,0000 0000 0000 0000 000000
2013-10-12 01:43:57,0.02,1.10,0.00,25.32,26.95,29.66,5.78,29.67,1011.73,2048.03,3085.96,3019.02,3290.98,349.63,319.57,8.62,0000 0000 0000 0000 000000
2013-10-12 01:44:57,0.01,1.10,0.00,25.35,26.95,29.62,6.11,29.79,1011.73,2048.03,3085.88,3019.00,3290.98,351.09,320.87,8.63,0000 0000 0000 0000 000000
2013-10-12 01:45:57,0.00,1.10,0.00,25.35,26.95,29.65,6.09,29.54,1011.73,2048.02,3085.93,3019.00,3290.95,351.03,320.82,8.64,0000 0000 0000 0000 000000
2013-10-12 01:46:57,0.00,1.10,0.00,25.35,26.95,29.68,6.08,29.46,1011.73,2048.04,3085.95,3019.01,3290.93,350.81,320.57,8.64,0000 0000 0000 0000 000000
2013-10-12 01:47:57,0.00,1.10,0.00,25.36,26.96,29.65,6.01,29.50,1011.73,2048.04,3085.79,3019.01,3290.92,349.91,319.95,8.65,0000 0000 0000 0000 000000
2013-10-12 01:48:58,0.03,1.10,0.00,25.36,26.96,29.67,5.72,29.38,1011.73,2048.05,3085.56,3019.00,3290.83,349.15,319.08,8.65,0000 0000 0000 0000 000000
2013-10-12 01:49:58,0.05,1.10,0.00,25.35,26.97,29.66,5.95,29.63,1011.73,2048.04,3085.32,3019.00,3290.60,350.42,320.26,8.66,0000 0000 0000 0000 000000
2013-10-12 01:50:58,0.06,1.10,0.00,25.35,26.97,29.69,6.04,29.63,1011.73,2048.03,3085.13,3018.99,3290.28,350.66,320.43,8.66,0000 0000 0000 0000 000000
2013-10-12 01:51:58,0.07,1.10,0.00,25.33,26.97,29.69,5.79,29.42,1011.73,2048.04,3085.06,3018.98,3290.16,349.52,320.02,8.67,0000 0000 0000 0000 000000
2013-10-12 01:52:58,0.03,1.10,0.00,25.33,26.97,29.66,5.83,29.42,1011.73,2048.05,3085.02,3018.99,3290.09,349.04,319.03,8.68,0000 0000 0000 0000 000000
2013-10-12 01:53:59,0.02,1.10,0.00,25.35,26.97,29.69,5.73,29.38,1011.73,2048.02,3085.00,3018.99,3290.07,349.64,319.49,8.68,0000 0000 0000 0000 000000
2013-10-12 01:54:59,-0.02,1.10,0.00,25.35,26.97,29.61,5.64,29.33,1011.73,2048.01,3085.00,3018.99,3290.05,350.29,320.13,8.69,0000 0000 0000 0000 000000
2013-10-12 01:55:59,0.00,1.10,0.00,25.36,26.97,29.68,6.02,29.46,1011.73,2048.01,3085.00,3018.98,3290.03,350.90,320.16,8.69,0000 0000 0000 0000 000000
2013-10-12 01:56:59,0.00,1.10,0.00,25.35,26.97,29.69,5.97,29.46,1011.72,2048.01,3085.00,3018.97,3290.01,350.08,319.95,8.70,0000 0000 0000 0000 000000
2013-10-12 01:58:00,0.00,1.10,0.00,25.37,26.97,29.69,5.93,29.58,1011.73,2048.00,3085.00,3018.93,3290.00,350.56,320.35,8.71,0000 0000 0000 0000 000000
2013-10-12 01:59:00,0.00,1.10,0.00,25.39,26.97,29.65,6.07,29.42,1011.72,2048.00,3085.00,3018.79,3290.00,349.57,319.44,8.71,0000 0000 0000 0000 000000
2013-10-12 02:00:00,0.03,1.10,0.00,25.38,26.98,29.60,6.00,29.63,1011.72,2048.00,3085.00,3018.74,3290.00,350.82,320.59,8.72,0000 0000 0000 0000 000000
2013-10-12 02:01:00,0.01,1.10,0.00,25.36,26.98,29.67,5.78,29.38,1011.73,2048.01,3084.98,3018.58,3290.00,350.77,320.56,8.72,0000 0000 0000 0000 000000
2013-10-12 02:02:01,0.06,1.10,0.00,25.37,26.99,29.72,6.02,29.67,1011.73,2048.02,3084.91,3018.31,3290.00,350.55,320.36,8.73,0000 0000 0000 0000 000000
2013-10-12 02:03:01,0.10,1.10,0.00,25.38,27.00,29.66,6.02,29.58,1011.73,2048.04,3084.76,3018.18,3289.99,350.72,320.33,8.74,0000 0000 0000 0000 000000
2013-10-12 02:04:01,0.03,1.10,0.00,25.38,27.00,29.70,5.72,29.42,1011.73,2048.02,3084.38,3018.08,3289.96,348.79,318.79,8.74,0000 0000 0000 0000 000000
2013-10-12 02:05:01,0.07,1.10,0.00,25.37,27.00,29.69,6.08,29.67,1011.73,2048.02,3084.22,3018.05,3289.95,350.01,319.78,8.75,0000 0000 0000 0000 000000
2013-10-12 02:06:02,0.02,1.10,0.00,25.38,27.00,29.63,5.94,29.58,1011.73,2048.03,3084.10,3018.03,3289.94,350.07,319.90,8.75,0000 0000 0000 0000 000000
2013-10-12 02:07:02,0.02,1.10,0.00,25.41,27.00,29.69,5.60,29.58,1011.73,2048.04,3084.08,3018.02,3289.89,348.41,318.36,8.76,0000 0000 0000 0000 000000
2013-10-12 02:08:02,0.02,1.10,0.00,25.41,27.00,29.69,5.61,29.46,1011.73,2048.02,3084.05,3018.02,3289.81,348.72,318.64,8.76,0000 0000 0000 0000 000000
2013-10-12 02:09:02,0.01,1.10,0.00,25.40,27.00,29.72,5.68,29.50,1011.73,2048.01,3084.03,3018.00,3289.49,349.32,318.94,8.77,0000 0000 0000 0000 000000
2013-10-12 02:10:02,0.05,1.10,0.00,25.39,27.00,29.68,6.02,29.54,1011.73,2048.00,3084.00,3018.00,3289.25,349.43,319.09,8.78,0000 0000 0000 0000 000000
2013-10-12 02:11:03,0.02,1.10,0.00,25.39,27.00,29.72,5.99,29.71,1011.73,2048.00,3084.00,3018.00,3289.12,350.90,321.02,8.78,0000 0000 0000 0000 000000
2013-10-12 02:12:03,0.01,1.10,0.00,25.40,27.00,29.64,5.69,29.25,1011.73,2048.00,3084.00,3018.00,3289.07,348.70,318.63,8.79,0000 0000 0000 0000 000000
2013-10-12 02:13:03,0.00,1.10,0.00,25.40,27.01,29.61,5.61,29.33,1011.73,2048.00,3084.00,3018.00,3289.03,348.46,318.41,8.79,0000 0000 0000 0000 000000
2013-10-12 02:14:03,0.00,1.10,0.00,25.40,27.02,29.63,5.73,29.58,1011.73,2048.00,3083.99,3017.99,3289.02,350.50,320.28,8.80,0000 0000 0000 0000 000000
2013-10-12 02:15:04,0.00,1.10,0.00,25.41,27.02,29.71,5.68,29.54,1011.73,2048.00,3083.99,3017.99,3289.00,349.15,319.42,8.81,0000 0000 0000 0000 000000
2013-10-12 02:16:04,0.00,1.10,0.00,25.42,27.02,29.73,6.01,29.46,1011.71,2048.00,3083.96,3017.98,3289.00,349.89,319.93,8.81,0000 0000 0000 0000 000000
2013-10-12 02:17:04,0.00,1.10,0.00,25.41,27.02,29.75,5.97,29.58,1011.73,2048.00,3083.88,3017.95,3289.00,350.10,319.90,8.82,0000 0000 0000 0000 000000
2013-10-12 02:18:04,0.02,1.10,0.00,25.43,27.02,29.73,5.75,29.38,1011.72,2048.00,3083.63,3017.89,3289.00,349.41,319.24,8.82,0000 0000 0000 0000 000000
2013-10-12 02:19:04,0.04,1.10,0.00,25.45,27.02,29.69,5.87,29.50,1011.73,2048.00,3083.53,3017.84,3289.00,349.77,319.44,8.83,0000 0000 0000 0000 000000
2013-10-12 02:20:05,0.02,1.11,0.00,25.44,27.02,29.73,5.98,29.75,1011.71,2048.00,3083.43,3017.78,3289.00,349.93,319.70,8.83,0000 0000 0000 0000 000000
2013-10-12 02:21:05,0.03,1.11,0.00,25.45,27.02,29.74,6.06,29.75,1011.73,2048.00,3083.34,3017.68,3289.00,350.47,319.72,8.84,0000 0000 0000 0000 000000
2013-10-12 02:22:05,0.04,1.11,0.00,25.46,27.02,29.74,5.92,29.50,1011.71,2048.00,3083.17,3017.42,3289.00,349.32,319.13,8.85,0000 0000 0000 0000 000000
2013-10-12 02:23:06,0.08,1.11,0.00,25.46,27.03,29.73,5.75,29.58,1011.73,2048.00,3083.07,3017.23,3288.99,349.85,319.61,8.85,0000 0000 0000 0000 000000
2013-10-12 02:24:06,0.05,1.11,0.00,25.46,27.03,29.76,5.92,29.79,1011.72,2048.00,3083.03,3017.11,3288.95,349.93,319.69,8.86,0000 0000 0000 0000 000000
2013-10-12 02:25:06,0.03,1.11,0.00,25.45,27.04,29.73,5.80,29.50,1011.68,2048.00,3083.01,3017.11,3288.95,349.95,319.70,8.86,0000 0000 0000 0000 000000
2013-10-12 02:26:06,0.00,1.11,0.00,25.46,27.05,29.76,6.11,29.67,1011.67,2048.00,3083.00,3017.08,3288.96,350.61,320.33,8.87,0000 0000 0000 0000 000000
2013-10-12 02:27:06,0.01,1.11,0.00,25.45,27.05,29.75,5.69,29.13,1011.59,2048.00,3083.00,3017.06,3288.83,349.43,318.88,8.88,0000 0000 0000 0000 000000
2013-10-12 02:28:06,0.03,1.11,0.00,25.46,27.05,29.73,5.76,29.29,1011.50,2048.00,3083.00,3017.04,3288.65,350.85,320.60,8.88,0000 0000 0000 0000 000000
2013-10-12 02:29:07,0.01,1.11,0.00,25.46,27.05,29.78,5.73,29.42,1011.42,2048.00,3083.00,3017.04,3288.50,349.59,318.92,8.89,0000 0000 0000 0000 000000
2013-10-12 02:30:07,0.02,1.11,0.00,25.47,27.05,29.73,5.67,29.17,1011.36,2048.00,3083.00,3017.01,3288.23,349.26,318.95,8.89,0000 0000 0000 0000 000000
2013-10-12 02:31:07,0.04,1.11,0.00,25.49,27.05,29.77,5.71,29.38,1011.29,2048.00,3083.00,3017.00,3288.08,348.87,318.55,8.90,0000 0000 0000 0000 000000
2013-10-12 02:32:07,0.02,1.11,0.00,25.47,27.05,29.77,5.96,29.67,1011.29,2047.99,3082.98,3017.00,3288.04,349.85,319.54,8.90,0000 0000 0000 0000 000000
2013-10-12 02:33:08,0.00,1.11,0.00,25.47,27.05,29.75,5.98,29.58,1011.29,2047.99,3082.91,3017.00,3288.03,350.19,319.78,8.91,0000 0000 0000 0000 000000
2013-10-12 02:34:08,0.01,1.11,0.00,25.48,27.05,29.76,6.01,29.63,1011.29,2047.99,3082.68,3017.00,3288.02,350.80,320.32,8.92,0000 0000 0000 0000 000000
2013-10-12 02:35:08,0.02,1.11,0.00,25.48,27.06,29.74,6.01,29.58,1011.36,2047.98,3082.51,3017.00,3288.00,350.60,320.26,8.92,0000 0000 0000 0000 000000
2013-10-12 02:36:08,0.01,1.11,0.00,25.50,27.07,29.79,5.97,29.42,1011.39,2047.99,3082.42,3017.00,3288.00,350.06,319.66,8.93,0000 0000 0000 0000 000000
2013-10-12 02:37:09,0.03,1.11,0.00,25.51,27.07,29.78,5.79,29.58,1011.48,2047.99,3082.22,3016.99,3288.00,350.13,319.73,8.93,0000 0000 0000 0000 000000